Location: Arbon
(43.0005°N, 0.7472°E)
Time: 10:45:33
(UTC+00:00)

Cosmos 2278 Rocket - Pass Details

Date: 22 April 2026
Orbit: 839 x 845 km, 71.0° (Epoch: 20 May)

Event Time Altitude Azimuth Distance (km) Brightness Sun altitude
Rises 20:22:19 0° 322° (NW) 3,412 6.9 -16.3°
Reaches altitude 10° 20:25:19 10° 307° (NW) 2,471 6.0 -16.7°
Maximum altitude 20:29:26 21° 260° (W) 1,802 4.4 -17.3°
Drops below altitude 10° 20:33:33 10° 212° (SSW) 2,455 4.6 -17.9°
Sets 20:36:32 0° 197° (SSW) 3,384 5.1 -18.4°
